Starlink 5289

operational
NORAD ID: 55278 Int'l Des: 2023-010 Owner: SPXS Country: US Constellation: starlink
LEOCIRCULAR

Über Starlink 5289

Beschreibung wird geladen...

Live-Position

3D-Globus wird geladen...

Nächste Überflüge

Höhenverlauf

Altitude vs Time

uPlot chart will show altitude changes over time

Zweizeiliger Elementsatz

1 55278U 23010K 26036.68501517 .00003030 00000-0 26144-3 0 9999
2 55278 69.9994 125.0814 0003902 264.8040 95.2674 14.98351417167981
Epoch: 5. Feb. 2026 • Age: 15 hours

Aktueller Status

Höhe 575.6 km
Geschwindigkeit 7.57 km/s
Subsatellitenpunkt 22.77°N, 108.65°W
Startdatum 19. Jan. 2023
Alter 3 years
Typ internet

Technische Details

Klassifizierung Payload
Masse 305.00 kg
Trockenmasse 290.00 kg
Gesamtmasse 305.00 kg
Länge 0.20 m
Durchmesser 2.80 m
Spannweite 9.00 m
Form Box + pan
Hersteller SPXS
Bus-Typ Starlink
Phasenstatus In Orbit
Besitzer/Staat SPXS/US

Große Konstellationen

Loading constellations...